This is the latest recevied weather packets stored in our database for station/object KC7RJK-2. If no packets are shown the sender has not sent any weather packets the latest 10 day(s).
| Time | Temp. | Humidity | Pressure | Rain* | Wind** | Luminosity | Snow |
|---|---|---|---|---|---|---|---|
| 1788518004 | 11.67° C | 95% | 1009.3 hPa | 0 mm | - | - | - |
| 1788517406 | 11.67° C | 95% | 1009.4 hPa | 0 mm | - | - | - |
| 1788516805 | 11.67° C | 95% | 1009.4 hPa | 0 mm | - | - | - |
| 1788516205 | 11.67° C | 95% | 1009.3 hPa | 0 mm | - | - | - |
| 1788515604 | 11.67° C | 95% | 1009.3 hPa | 0 mm | - | - | - |
| 1788514405 | 11.67° C | 95% | 1009.3 hPa | 0 mm | - | - | - |
| 1788513804 | 11.67° C | 95% | 1009.3 hPa | 0 mm | - | - | - |
| 1788512605 | 11.67° C | 95% | 1009.2 hPa | 0.51 mm | - | - | - |
| 1788512004 | 11.67° C | 95% | 1009.2 hPa | 1.52 mm | - | - | - |
| 1788510805 | 11.67° C | 94% | 1009.2 hPa | 2.79 mm | - | - | - |
| 1788510206 | 11.67° C | 94% | 1009.2 hPa | 3.05 mm | - | - | - |
| 1788509605 | 12.22° C | 94% | 1009.2 hPa | 3.05 mm | - | - | - |
| 1788509004 | 12.22° C | 94% | 1009.4 hPa | 2.79 mm | - | - | - |
| 1788508405 | 12.22° C | 94% | 1009.4 hPa | 2.29 mm | - | - | - |
| 1788507805 | 12.22° C | 94% | 1009.6 hPa | 1.78 mm | - | - | - |
| 1788507204 | 12.22° C | 94% | 1009.5 hPa | 1.02 mm | - | - | - |
| 1788506606 | 12.22° C | 94% | 1009.4 hPa | 0.25 mm | - | - | - |
| 1788506005 | 12.22° C | 94% | 1009.1 hPa | 0.51 mm | - | - | - |
| 1788505404 | 12.22° C | 94% | 1009 hPa | 0.51 mm | - | - | - |
| 1788504805 | 12.22° C | 94% | 1008.9 hPa | 0.51 mm | - | - | - |
| 1788503604 | 12.22° C | 94% | 1008.9 hPa | 0.51 mm | - | - | - |
| 1788503006 | 12.22° C | 94% | 1008.9 hPa | 1.02 mm | - | - | - |
| 1788501205 | 12.22° C | 94% | 1009.1 hPa | 1.52 mm | - | - | - |
| 1788498805 | 12.22° C | 94% | 1009.6 hPa | 0.76 mm | - | - | - |
| 1788498204 | 12.22° C | 94% | 1009.6 hPa | 0.25 mm | - | - | - |
* Rain latest hour (hover to see other rain measurements)
** Current wind speed in m/s (hover to see current wind gust speed)